This demonstration page uses our WeatherBlox Daily Observations layout. Learn more.

Left ArrowRight Arrow

34.02893, -84.19858

Hourly Observations for October 27, 2015

Temp ( °F °C ) Dew Point ( °F °C ) Humidity (%) Winds ( mph kmh ) Pressure ( in mb ) Visibility ( mi km ) Precip ( " mm )
12:53 am 00:53 Cloudy 51 10.6 50 10 96 96 ENE 9 15 30.19 1022 10 16 0.00 0.00
1:53 am 01:53 Cloudy 51 10.6 50 10 96 96 E 12 19 30.18 1022 10 16 0.00 0.00
2:53 am 02:53 Cloudy 50 10 49 9.4 96 96 E 12 19 30.17 1022 10 16 0.00 0.00
3:53 am 03:53 Cloudy 50 10 49 9.4 96 96 VRB 7 11 30.16 1021 9 14 0.00 0.00
4:53 am 04:53 Cloudy with Light Rain 50 10 49 9.4 96 96 ENE 13 20 30.15 1021 7 11 0.01 0.25
5:53 am 05:53 Cloudy with Light Rain 50 10 49 9.4 96 96 VRB 7 11 30.15 1021 10 16 0.04 1.02
6:53 am 06:53 Cloudy with Light Rain 50 10 49 9.4 96 96 ENE 13 20 30.14 1021 8 13 0.00 0.03
7:53 am 07:53 Cloudy with Light Rain 50 10 49 9.4 96 96 E 9 15 30.15 1021 10 16 0.00 0.03
8:53 am 08:53 Cloudy with Light Rain 50 10 50 10 100 100 E 8 13 30.16 1021 5 8 0.00 0.03
9:53 am 09:53 Cloudy with Light Rain 51 10.6 50 10 96 96 ENE 10 17 30.16 1021 10 16 0.03 0.76
10:53 am 10:53 Cloudy with Mist and Fog 51 10.6 51 10.6 100 100 ENE 9 15 30.14 1021 3 4 0.00 0.03
11:09 am 11:09 Cloudy with Mist and Fog 51 10.6 51 10.6 100 100 E 9 15 30.12 1020 4 6 0.00 0.00
11:53 am 11:53 Cloudy with Light Rain 52 11.1 52 11.1 100 100 E 10 17 30.13 1020 2 2 0.00 0.03
11:57 am 11:57 Cloudy with Light Rain 52 11.1 52 11.1 100 100 VRB 6 9 30.12 1020 2 3 0.00 0.03
12:53 pm 12:53 Cloudy with Light Rain 53 11.7 53 11.7 100 100 E 9 15 30.11 1020 2 3 0.02 0.51
1:53 pm 13:53 Cloudy 54 12.2 53 11.7 97 97 E 9 15 30.06 1018 10 16 0.01 0.25
2:53 pm 14:53 Cloudy 54 12.2 53 11.7 97 97 VRB 6 9 30.04 1017 10 16 0.00 0.00
3:53 pm 15:53 Cloudy 54 12.2 53 11.7 97 97 ENE 8 13 30.01 1016 9 14 0.00 0.03
4:53 pm 16:53 Cloudy 54 12.2 53 11.7 97 97 ENE 9 15 30.00 1016 10 16 0.00 0.00
5:53 pm 17:53 Cloudy with Mist and Fog 54 12.2 53 11.7 97 97 ENE 10 17 30.00 1016 6 10 0.00 0.00
6:53 pm 18:53 Cloudy with Light Rain 54 12.2 54 12.2 100 100 VRB 6 9 29.99 1016 4 6 0.00 0.03
7:53 pm 19:53 Cloudy with Mist and Fog 54 12.2 54 12.2 100 100 ENE 8 13 29.99 1016 2 3 0.01 0.25
7:59 pm 19:59 Cloudy with Mist and Fog 54 12.2 54 12.2 100 100 VRB 7 11 30.00 1016 6 10 0.00 0.00
8:53 pm 20:53 Cloudy with Mist and Fog 54 12.2 54 12.2 100 100 ENE 10 17 29.98 1015 6 10 0.00 0.00
9:53 pm 21:53 Cloudy with Rain 54 12.2 54 12.2 100 100 ENE 7 11 29.98 1015 3 4 0.04 1.02
10:03 pm 22:03 Cloudy with Light Rain 54 12 54 12 100 100 NE 8 13 29.97 1015 3 5 0.00 0.00
10:53 pm 22:53 Cloudy 54 12.2 54 12.2 100 100 VRB 7 11 29.96 1015 10 16 0.03 0.76
11:53 pm 23:53 Cloudy with Light Rain 55 12.8 55 12.8 100 100 ENE 7 11 29.95 1014 4 6 0.01 0.25

Powered by AerisWeather